Location: Newark
(47.7394°N, 8.0008°E)
Time: 05:01:51
(UTC+00:00)

N. Korean satellite - Pass Details

Date: 16 December 2019
Orbit: 454 x 508 km, 97.2° (Epoch: 20 January)

Event Time Altitude Azimuth Distance (km) Brightness Sun altitude
Rises 05:33:41 0° 10° (N) 2,531 10.1 -15.4°
Reaches altitude 10° 05:35:46 10° 9° (N) 1,640 9.1 -15.0°
Maximum altitude 05:39:16 73° 284° (WNW) 491 6.3 -14.5°
Drops below altitude 10° 05:42:42 10° 200° (SSW) 1,602 9.2 -13.9°
Sets 05:44:42 0° 199° (SSW) 2,465 10.2 -13.6°
